Location: Unspecified
(22.6800°N, 112.2000°E)
Time: 13:23:26
(UTC+08:00)

Transit 2A - Pass Details

Date: 04 August 2021
Orbit: 594 x 964 km, 66.7° (Epoch: 21 September)

Event Time Altitude Azimuth Distance (km) Brightness Sun altitude
Rises 06:27:14 0° 248° (WSW) 2,820 8.2 4.3°
Reaches altitude 10° 06:31:04 10° 284° (WNW) 1,934 7.6 5.2°
Maximum altitude 06:32:24 11° 302° (WNW) 1,864 7.7 5.5°
Drops below altitude 10° 06:33:45 10° 320° (NW) 1,959 7.9 5.8°
Sets 06:37:46 0° 355° (N) 2,924 9.2 6.7°
